Torna al catalogo

FENGYUN 1C DEB

AttivoSSO
NORAD 37907·DEBRIS·🇨🇳 China

Lanciato May 10, 1999 da Taiyuan Satellite Launch Center

Loading…

Prossimi Passaggi (prossime 24 ore)

TLE

AggiornatoSource: Space-Track

Epoca: Sep 14, 2026, 13:54 UTC

1 37907U 99025ENG 26257.57923541  .00003147  00000-0  13123-2 0  9996
2 37907  99.0883  25.1213 0059518 113.8967 246.8462 14.26041398872010

Traccia FENGYUN 1C DEB in tempo reale con AllMySat

Download on the App Store